Change the Weather History Date:

Tuesday, January 21, 2014

  Actual Average Record
Temperature  
Mean Temperature 76 °F -  
Max Temperature 82 °F 87 °F 93 °F (2002)
Min Temperature 71 °F 73 °F 68 °F (2015)
Cooling Degree Days 12    
Growing Degree Days 26 (Base 50)    
Moisture  
Dew Point 59 °F    
Average Humidity 54    
Maximum Humidity 73    
Minimum Humidity 42    
Precipitation  
Precipitation 0.00 in - - ()
Sea Level Pressure  
Sea Level Pressure 29.97 in    
Wind  
Wind Speed 8 mph ()    
Max Wind Speed 16 mph    
Max Gust Speed -    
Visibility 5.5 miles    
Events      
Averages and records for this station are not official NWS values.
T = Trace of Precipitation, MM = Missing Value Source: Averaged Metar Reports

Daily Weather History Graph

Daily Weather History Graph

Search for Another Location

Airport or City:

Trip Planner

Search our weather history database for the weather conditions in past years. The results will help you decide how hot, cold, wet, or windy it might be!

Date:

Astronomy

Jan. 21, 2014 Rise Set
Actual Time 6:25 AM ICT 5:58 PM ICT
Civil Twilight 6:02 AM ICT 6:21 PM ICT
Nautical Twilight 5:36 AM ICT 6:46 PM ICT
Astronomical Twilight 5:11 AM ICT 7:12 PM ICT
Moon 9:59 PM ICT (1/21) 9:33 AM ICT (1/21)
Length of Visible Light 12h 18m
Length of Day
11h 33m
Waning Gibbous, 79% of the Moon is Illuminated
Jan 21
Waning Gibbous
Jan 24
Last Quarter
Jan 31
New
Feb 7
First Quarter
Feb 15
Full

Hourly Weather History & Observations

Time (ICT) Temp. Heat Index Dew Point Humidity Pressure Visibility Wind Dir Wind Speed Gust Speed Precip Events Conditions
12:00 AM 73.4 °F - 62.6 °F 69% 29.98 in 5.6 mi NNE 5.8 mph - N/A   Unknown
12:30 AM 73.4 °F - 64.4 °F 73% 29.98 in 5.6 mi North 5.8 mph - N/A   Unknown
1:00 AM 73.4 °F - 64.4 °F 73% 29.98 in 5.6 mi NNE 5.8 mph - N/A   Unknown
6:00 AM 73.4 °F - 59.0 °F 61% 29.98 in 5.0 mi NNE 5.8 mph - N/A   Unknown
6:30 AM 73.4 °F - 57.2 °F 57% 30.01 in 5.0 mi NNE 9.2 mph - N/A   Unknown
7:00 AM 71.6 °F - 59.0 °F 64% 30.01 in 5.0 mi NNE 5.8 mph - N/A   Unknown
7:30 AM 71.6 °F - 59.0 °F 64% 30.01 in 5.0 mi North 6.9 mph - N/A   Unknown
8:00 AM 73.4 °F - 59.0 °F 61% 30.04 in 5.0 mi North 10.4 mph - N/A   Unknown
8:30 AM 73.4 °F - 59.0 °F 61% 30.04 in 5.0 mi North 9.2 mph - N/A   Unknown
9:00 AM 75.2 °F - 59.0 °F 57% 30.04 in 5.0 mi NNE 13.8 mph - N/A   Unknown
9:30 AM 75.2 °F - 59.0 °F 57% 30.04 in 5.6 mi North 11.5 mph - N/A   Unknown
10:00 AM 75.2 °F - 59.0 °F 57% 30.04 in 5.6 mi North 10.4 mph - N/A   Unknown
10:30 AM 77.0 °F - 59.0 °F 54% 30.04 in 5.6 mi NNE 11.5 mph - N/A   Unknown
11:00 AM 77.0 °F - 59.0 °F 54% 30.04 in 5.6 mi NNE 12.7 mph - N/A   Unknown
11:30 AM 78.8 °F - 59.0 °F 51% 30.01 in 5.6 mi North 12.7 mph - N/A   Partly Cloudy
12:00 PM 78.8 °F - 60.8 °F 54% 30.01 in 5.6 mi NNW 13.8 mph - N/A   Partly Cloudy
12:30 PM 78.8 °F - 59.0 °F 51% 29.98 in 5.6 mi North 11.5 mph - N/A   Partly Cloudy
1:00 PM 80.6 °F 81.1 °F 59.0 °F 48% 29.98 in 5.6 mi North 13.8 mph - N/A   Partly Cloudy
1:30 PM 78.8 °F - 59.0 °F 51% 29.95 in 5.6 mi NNW 16.1 mph - N/A   Partly Cloudy
2:00 PM 80.6 °F 80.8 °F 57.2 °F 45% 29.92 in 6.2 mi North 16.1 mph - N/A   Partly Cloudy
2:30 PM 80.6 °F 80.8 °F 57.2 °F 45% 29.92 in 6.2 mi NNW 13.8 mph - N/A   Partly Cloudy
3:00 PM 82.4 °F 82.0 °F 57.2 °F 42% 29.89 in 6.2 mi North 13.8 mph - N/A   Partly Cloudy
3:30 PM 82.4 °F 82.0 °F 57.2 °F 42% 29.89 in - North 9.2 mph - N/A   Clear
4:00 PM 80.6 °F 80.8 °F 57.2 °F 45% 29.89 in - NNW 11.5 mph - N/A   Clear
4:30 PM 82.4 °F 82.0 °F 57.2 °F 42% 29.89 in 5.6 mi North 9.2 mph - N/A   Partly Cloudy
5:00 PM 80.6 °F 80.5 °F 55.4 °F 42% 29.92 in 5.6 mi NNW 11.5 mph - N/A   Partly Cloudy
5:30 PM 80.6 °F 80.8 °F 57.2 °F 45% 29.92 in 5.6 mi North 9.2 mph - N/A   Partly Cloudy
6:00 PM 80.6 °F 81.1 °F 59.0 °F 48% 29.92 in 5.6 mi NNW 8.1 mph - N/A   Scattered Clouds
6:30 PM 78.8 °F - 57.2 °F 47% 29.92 in 5.6 mi NNW 4.6 mph - N/A   Scattered Clouds
7:00 PM 78.8 °F - 59.0 °F 51% 29.95 in 5.6 mi NNW 4.6 mph - N/A   Scattered Clouds
7:30 PM 77.0 °F - 57.2 °F 50% 29.95 in 5.6 mi NNW 3.5 mph - N/A   Scattered Clouds
8:00 PM 77.0 °F - 59.0 °F 54% 29.95 in 5.6 mi North 3.5 mph - N/A   Unknown
8:30 PM 75.2 °F - 59.0 °F 57% 29.98 in 5.6 mi North 3.5 mph - N/A   Unknown
9:00 PM 77.0 °F - 59.0 °F 54% 29.98 in 5.6 mi North 4.6 mph - N/A   Unknown
9:30 PM 75.2 °F - 57.2 °F 53% 29.98 in 5.6 mi North 5.8 mph - N/A   Unknown
10:00 PM 73.4 °F - 59.0 °F 61% 29.98 in 5.6 mi North 5.8 mph - N/A   Unknown
10:30 PM 73.4 °F - 59.0 °F 61% 29.98 in 5.6 mi North 4.6 mph - N/A   Unknown
11:00 PM 73.4 °F - 57.2 °F 57% 29.98 in 5.6 mi North 4.6 mph - N/A   Unknown
11:30 PM 73.4 °F - 57.2 °F 57% 30.01 in 5.6 mi NE 6.9 mph - N/A   Scattered Clouds